Flag for US Virgin Islands Weather past 2 weeks in Cruz Bay, US Virgin Islands

Now
70 °F

Clear.


Feels Like: 64 °F
Forecast: 73 / 80 °F
Wind: No wind

Location: Roosevelt Roads - Naval Station

Current Time: Jan 28, 2015 at 6:04:49 AM

Latest Report: Jan 28, 2015 at 4:53 AM


Visibility: 10 mi

Pressure: 30.00 "Hg

Humidity: 97%

Dew point: 69 °F

Location of Cruz BayLocation

Historic Weather in Cruz Bay — Graph

°F

Cruz Bay temperature yesterday

Maximum temperature yesterday: 84 °F (at 10:53 AM)
Minimum temperature yesterday: 72 °F (at 12:53 AM)
Average temperature yesterday: 78 °F

Past Weeks' High & Low Weather Summary

 TemperatureHumidityPressure
High86 °F (Jan 17, 12:53 PM)97% (Jan 16, 4:53 AM)30.14 "Hg (Jan 16, 4:53 AM)
Low69 °F (Jan 19, 5:53 AM)57% (Jan 21, 2:53 PM)29.96 "Hg (Jan 17, 4:53 AM)
Average77 °F80%30.03 "Hg
* Reported Jan 13 4:53 AM — Jan 28 4:53 AM, Cruz Bay, Weather by CustomWeather, © 2014

Note: Actual official high and low records may vary slightly from our data, if they occured in-between our weather recording intervals... More about our weather records

Advertising

Cruz Bay weather history for previous 24 hours

 ConditionsComfort  
Time TempWeatherWind HumidityBarometerVisibility
4:53 AM
Jan 28
70 °FClear.No wind97%30.00 "Hg10 mi
3:53 AM70 °FClear.No wind97%29.99 "Hg10 mi
2:53 AM70 °FClear.No wind93%29.99 "Hg10 mi
1:53 AM71 °FClear.No wind93%30.01 "Hg10 mi
12:53 AM74 °FClear.3 mph88%30.03 "Hg10 mi
11:53 PM
Jan 27
73 °FClear.3 mph90%30.04 "Hg10 mi
10:53 PM75 °FClear.3 mph85%30.06 "Hg10 mi
9:53 PM75 °FClear.5 mph88%30.06 "Hg10 mi
8:53 PM76 °FClear.5 mph85%30.04 "Hg10 mi
7:53 PM77 °FClear.3 mph82%30.03 "Hg10 mi
6:53 PM78 °FSunny.5 mph76%30.02 "Hg10 mi
5:53 PM79 °FSunny.8 mph77%30.01 "Hg10 mi
4:53 PM81 °FSunny.9 mph72%30.00 "Hg10 mi
3:53 PM81 °FPartly sunny.13 mph74%29.99 "Hg10 mi
2:53 PM82 °FOvercast.10 mph70%29.99 "Hg10 mi
1:53 PM82 °FLight rain. More clouds than sun.12 mph72%30.01 "Hg10 mi
12:53 PM84 °FPassing clouds.15 mph65%30.03 "Hg10 mi
11:53 AM81 °FMostly cloudy.12 mph77%30.05 "Hg10 mi
10:53 AM84 °FBroken clouds.14 mph67%30.06 "Hg10 mi
9:53 AM82 °FPartly sunny.12 mph74%30.06 "Hg10 mi
8:53 AM79 °FScattered clouds.10 mph82%30.05 "Hg10 mi
8:04 AM78 °FBroken clouds.No wind82%30.04 "Hg10 mi
6:53 AM76 °FClear.7 mph85%30.01 "Hg10 mi
Weather by CustomWeather, © 2014

See weather overviewHow to use our weather pages